Location: Waco, TX
(31.5480°N, 97.1670°W)
Time: 00:51:17
(UTC-06:00)

ISS - Pass Details

Date: 19 January 2018
Orbit: 402 x 407 km, 51.6° (Epoch: 21 January)

Event Time Altitude Azimuth Distance (km) Brightness Sun altitude
Rises 04:14:10 0° 329° (NNW) 2,320 - -40.9°
Reaches altitude 10° 04:16:38 10° 347° (NNW) 1,459 - -40.4°
Maximum altitude 04:19:06 20° 37° (NE) 1,015 - -39.8°
Drops below altitude 10° 04:21:34 10° 86° (E) 1,457 - -39.3°
Exits shadow 04:23:50 - 103° (ESE) 2,242 0.8 -38.8°
Sets 04:24:02 0° 104° (ESE) 2,314 0.9 -38.8°
